QPF
0.03 0.01 0.02 0.02 0.01 0.00 0.00 0.00 0.01 0.02 0.03 0.03 0.03 0.03 0.03 0.03 0.02 0.03 0.01 0.01 0.01 0.00 0.01 0.01 0.01 0.01 0.01 0.01 0.01 0.01 0.01 0.01 0.02 0.02 0.02 0.02 0.02 0.02 0.02 0.02 0.02 0.03 0.04 0.04
0.03 0.02 0.01 0.02 0.02 0.01 0.01 0.00 0.01 0.01 0.02 0.03 0.03 0.03 0.02 0.02 0.02 0.02 0.02 0.02 0.01 0.01 0.01 0.01 0.01 0.01 0.01 0.01 0.01 0.01 0.01 0.01 0.01 0.02 0.03 0.03 0.03 0.03 0.02 0.02 0.01 0.02 0.02 0.04
0.03 0.02 0.01 0.02 0.02 0.02 0.01 0.01 0.01 0.01 0.02 0.02 0.02 0.03 0.02 0.01 0.01 0.01 0.01 0.02 0.02 0.01 0.01 0.01 0.01 0.01 0.01 0.01 0.01 0.02 0.01 0.01 0.01 0.02 0.04 0.05 0.06 0.04 0.03 0.02 0.02 0.01 0.01 0.02
0.02 0.02 0.01 0.01 0.02 0.02 0.01 0.01 0.01 0.01 0.02 0.04 0.03 0.03 0.02 0.01 0.01 0.01 0.01 0.01 0.01 0.01 0.01 0.00 0.00 0.01 0.02 0.02 0.02 0.02 0.02 0.02 0.02 0.02 0.03 0.03 0.04 0.05 0.05 0.04 0.04 0.03 0.02 0.02
0.02 0.02 0.02 0.01 0.01 0.02 0.01 0.01 0.01 0.02 0.03 0.04 0.03 0.03 0.02 0.01 0.01 0.01 0.01 0.00 0.00 0.00 0.00 0.00 0.00 0.01 0.01 0.02 0.02 0.02 0.02 0.03 0.03 0.03 0.03 0.02 0.02 0.03 0.03 0.03 0.03 0.03 0.03 0.02
0.01 0.01 0.02 0.02 0.01 0.01 0.01 0.01 0.02 0.03 0.05 0.06 0.03 0.02 0.02 0.01 0.00 0.00 0.00 0.00 0.00 0.00 0.00 0.00 0.00 0.00 0.01 0.02 0.02 0.02 0.03 0.03 0.03 0.03 0.03 0.02 0.03 0.03 0.04 0.04 0.05 0.05 0.05 0.05
0.02 0.01 0.01 0.02 0.02 0.02 0.02 0.03 0.04 0.05 0.06 0.05 0.02 0.02 0.02 0.02 0.01 0.00 0.00 0.00 0.01 0.01 0.01 0.01 0.01 0.00 0.01 0.01 0.01 0.02 0.02 0.03 0.03 0.03 0.03 0.02 0.03 0.04 0.05 0.05 0.05 0.05 0.05 0.05
0.02 0.02 0.01 0.02 0.02 0.02 0.02 0.03 0.03 0.02 0.02 0.02 0.02 0.02 0.02 0.01 0.01 0.01 0.00 0.00 0.01 0.01 0.01 0.02 0.01 0.01 0.01 0.01 0.01 0.01 0.01 0.01 0.02 0.02 0.02 0.02 0.03 0.04 0.04 0.04 0.05 0.06 0.05 0.04
0.02 0.02 0.01 0.01 0.01 0.01 0.03 0.03 0.02 0.02 0.01 0.01 0.02 0.01 0.01 0.01 0.01 0.01 0.00 0.00 0.01 0.01 0.01 0.01 0.02 0.02 0.01 0.01 0.01 0.01 0.01 0.01 0.01 0.01 0.01 0.01 0.01 0.01 0.02 0.02 0.03 0.04 0.03 0.03
0.02 0.02 0.01 0.01 0.01 0.01 0.02 0.03 0.03 0.03 0.02 0.02 0.02 0.01 0.01 0.01 0.01 0.01 0.01 0.01 0.01 0.01 0.01 0.01 0.01 0.02 0.02 0.02 0.02 0.01 0.01 0.00 0.01 0.01 0.01 0.01 0.01 0.02 0.02 0.02 0.03 0.03 0.03 0.03
0.01 0.01 0.02 0.02 0.02 0.02 0.03 0.04 0.04 0.05 0.02 0.01 0.01 0.01 0.00 0.00 0.01 0.01 0.00 0.00 0.00 0.00 0.01 0.01 0.01 0.01 0.01 0.01 0.01 0.01 0.01 0.01 0.01 0.01 0.01 0.01 0.01 0.02 0.03 0.03 0.03 0.03 0.02 0.02
0.01 0.01 0.01 0.01 0.01 0.01 0.02 0.03 0.03 0.04 0.02 0.01 0.01 0.01 0.01 0.00 0.00 0.00 0.00 0.00 0.00 0.00 0.00 0.01 0.01 0.01 0.01 0.01 0.01 0.01 0.01 0.01 0.01 0.01 0.01 0.01 0.02 0.02 0.03 0.03 0.03 0.03 0.04 0.04
0.02 0.02 0.01 0.01 0.01 0.01 0.02 0.03 0.03 0.04 0.03 0.02 0.01 0.01 0.01 0.01 0.00 0.00 0.00 0.00 0.00 0.00 0.00 0.00 0.00 0.01 0.01 0.01 0.01 0.01 0.01 0.01 0.00 0.00 0.00 0.01 0.01 0.02 0.02 0.02 0.02 0.02 0.02 0.02
0.02 0.02 0.01 0.01 0.01 0.01 0.02 0.02 0.03 0.04 0.05 0.03 0.01 0.01 0.01 0.01 0.00 0.00 0.00 0.00 0.00 0.00 0.00 0.01 0.01 0.00 0.00 0.00 0.00 0.00 0.00 0.00 0.00 0.00 0.00 0.01 0.01 0.01 0.01 0.01 0.02 0.02 0.02 0.02
0.01 0.01 0.01 0.01 0.01 0.01 0.01 0.01 0.02 0.03 0.04 0.03 0.02 0.01 0.01 0.00 0.00 0.00 0.00 0.00 0.00 0.00 0.00 0.01 0.01 0.01 0.01 0.01 0.01 0.01 0.00 0.00 0.00 0.01 0.01 0.01 0.01 0.01 0.01 0.01 0.01 0.01 0.01 0.01
0.01 0.01 0.00 0.00 0.01 0.01 0.01 0.01 0.02 0.03 0.03 0.02 0.01 0.01 0.01 0.00 0.00 0.00 0.00 0.00 0.00 0.00 0.00 0.00 0.01 0.02 0.01 0.02 0.02 0.01 0.01 0.01 0.01 0.01 0.01 0.01 0.01 0.01 0.01 0.01 0.01 0.01 0.02 0.02
0.00 0.01 0.00 0.00 0.00 0.00 0.01 0.02 0.03 0.03 0.03 0.03 0.02 0.01 0.01 0.01 0.00 0.00 0.00 0.00 0.00 0.00 0.00 0.00 0.01 0.02 0.02 0.02 0.02 0.02 0.01 0.01 0.01 0.01 0.01 0.01 0.01 0.01 0.01 0.01 0.01 0.01 0.02 0.03
0.00 0.00 0.01 0.00 0.00 0.00 0.01 0.01 0.03 0.03 0.03 0.03 0.03 0.02 0.02 0.01 0.01 0.01 0.01 0.01 0.00 0.00 0.00 0.00 0.01 0.02 0.03 0.03 0.02 0.02 0.01 0.01 0.01 0.01 0.01 0.01 0.01 0.01 0.01 0.01 0.01 0.01 0.01 0.01
0.00 0.00 0.00 0.00 0.00 0.00 0.00 0.01 0.02 0.02 0.03 0.03 0.04 0.03 0.02 0.02 0.02 0.01 0.01 0.01 0.01 0.01 0.01 0.01 0.01 0.01 0.02 0.02 0.02 0.01 0.02 0.02 0.02 0.02 0.02 0.01 0.01 0.01 0.00 0.00 0.00 0.01 0.01 0.00
0.01 0.01 0.01 0.00 0.00 0.00 0.00 0.00 0.01 0.02 0.02 0.02 0.02 0.02 0.02 0.03 0.03 0.02 0.01 0.01 0.01 0.01 0.01 0.01 0.01 0.01 0.01 0.02 0.02 0.02 0.02 0.03 0.02 0.02 0.02 0.01 0.01 0.01 0.01 0.01 0.01 0.01 0.00 0.00
0.01 0.01 0.01 0.00 0.00 0.00 0.00 0.00 0.00 0.01 0.01 0.01 0.02 0.02 0.02 0.02 0.02 0.02 0.01 0.01 0.01 0.01 0.00 0.00 0.00 0.00 0.01 0.01 0.01 0.01 0.01 0.01 0.01 0.01 0.01 0.01 0.01 0.01 0.01 0.01 0.00 0.00 0.00 0.00
0.00 0.00 0.00 0.00 0.00 0.00 0.00 0.00 0.00 0.01 0.01 0.01 0.01 0.01 0.01 0.02 0.02 0.02 0.01 0.01 0.01 0.01 0.01 0.00 0.00 0.00 0.00 0.00 0.01 0.01 0.01 0.01 0.01 0.01 0.01 0.01 0.01 0.01 0.01 0.00 0.00 0.00 0.00 0.01
0.00 0.00 0.00 0.00 0.00 0.00 0.00 0.00 0.01 0.01 0.01 0.01 0.01 0.01 0.01 0.01 0.01 0.02 0.02 0.01 0.01 0.01 0.01 0.01 0.01 0.00 0.00 0.00 0.00 0.00 0.01 0.01 0.01 0.01 0.01 0.01 0.01 0.01 0.01 0.00 0.00 0.00 0.01 0.01
0.00 0.00 0.00 0.00 0.00 0.00 0.00 0.00 0.00 0.00 0.00 0.00 0.00 0.01 0.01 0.01 0.01 0.01 0.01 0.01 0.01 0.01 0.01 0.01 0.01 0.00 0.00 0.00 0.00 0.00 0.00 0.01 0.01 0.00 0.00 0.00 0.00 0.00 0.00 0.00 0.00 0.01 0.01 0.01
0.00 0.00 0.00 0.00 0.00 0.00 0.00 0.00 0.00 0.00 0.00 0.00 0.00 0.00 0.00 0.00 0.00 0.00 0.00 0.00 0.00 0.00 0.00 0.00 0.00 0.00 0.00 0.00 0.00 0.00 0.00 0.00 0.00 0.00 0.00 0.00 0.00 0.00 0.01 0.01 0.01 0.01 0.01 0.02
0.00 0.00 0.00 0.00 0.00 0.00 0.00 0.00 0.00 0.00 0.00 0.00 0.00 0.00 0.00 0.00 0.00 0.00 0.00 0.00 0.00 0.00 0.00 0.00 0.00 0.00 0.00 0.00 0.00 0.00 0.00 0.00 0.00 0.00 0.00 0.00 0.01 0.01 0.01 0.01 0.01 0.01 0.01 0.01
MSLP
1022.54 1022.16 1021.80 1021.44 1021.07 1020.70 1020.29 1019.85 1019.37 1018.86 1018.33 1017.80 1017.31 1016.89 1016.58 1016.38 1016.31 1016.36 1016.52 1016.75 1017.04 1017.35 1017.66 1017.94 1018.18 1018.40 1018.59 1018.76 1018.93 1019.10 1019.29 1019.50 1019.73 1019.97 1020.21 1020.45 1020.67 1020.86 1021.00 1021.10 1021.15 1021.16 1021.12 1021.05
1022.77 1022.42 1022.05 1021.66 1021.24 1020.79 1020.29 1019.77 1019.23 1018.70 1018.20 1017.77 1017.43 1017.20 1017.10 1017.12 1017.25 1017.48 1017.77 1018.10 1018.44 1018.75 1019.03 1019.27 1019.45 1019.58 1019.69 1019.77 1019.85 1019.94 1020.06 1020.20 1020.38 1020.58 1020.82 1021.06 1021.30 1021.51 1021.68 1021.80 1021.85 1021.83 1021.75 1021.62
1023.12 1022.79 1022.41 1021.99 1021.49 1020.94 1020.34 1019.72 1019.13 1018.59 1018.15 1017.85 1017.69 1017.70 1017.86 1018.14 1018.52 1018.95 1019.39 1019.82 1020.20 1020.51 1020.75 1020.91 1021.01 1021.06 1021.08 1021.07 1021.06 1021.07 1021.11 1021.19 1021.31 1021.48 1021.69 1021.93 1022.17 1022.40 1022.58 1022.70 1022.73 1022.68 1022.55 1022.35
1023.56 1023.25 1022.86 1022.38 1021.81 1021.15 1020.44 1019.74 1019.09 1018.57 1018.21 1018.06 1018.13 1018.40 1018.84 1019.40 1020.03 1020.67 1021.26 1021.77 1022.17 1022.46 1022.64 1022.72 1022.73 1022.69 1022.62 1022.54 1022.46 1022.41 1022.38 1022.41 1022.48 1022.61 1022.78 1022.99 1023.22 1023.43 1023.60 1023.71 1023.72 1023.63 1023.45 1023.18
1024.04 1023.74 1023.33 1022.80 1022.14 1021.38 1020.58 1019.80 1019.13 1018.64 1018.40 1018.42 1018.72 1019.27 1020.00 1020.84 1021.71 1022.52 1023.23 1023.79 1024.19 1024.42 1024.52 1024.51 1024.43 1024.31 1024.17 1024.04 1023.92 1023.82 1023.77 1023.75 1023.78 1023.86 1023.98 1024.15 1024.33 1024.51 1024.65 1024.73 1024.72 1024.60 1024.38 1024.06
1024.50 1024.18 1023.74 1023.14 1022.41 1021.57 1020.69 1019.87 1019.21 1018.79 1018.68 1018.90 1019.44 1020.26 1021.26 1022.35 1023.41 1024.37 1025.15 1025.72 1026.07 1026.23 1026.23 1026.12 1025.96 1025.77 1025.60 1025.44 1025.32 1025.22 1025.15 1025.11 1025.11 1025.14 1025.20 1025.31 1025.43 1025.56 1025.66 1025.70 1025.66 1025.52 1025.27 1024.93
1024.86 1024.51 1024.01 1023.36 1022.55 1021.65 1020.73 1019.90 1019.29 1018.97 1019.02 1019.45 1020.23 1021.30 1022.54 1023.83 1025.04 1026.09 1026.89 1027.43 1027.70 1027.75 1027.65 1027.44 1027.21 1026.99 1026.80 1026.66 1026.57 1026.50 1026.45 1026.41 1026.38 1026.37 1026.38 1026.41 1026.46 1026.52 1026.56 1026.57 1026.51 1026.36 1026.11 1025.76
1025.08 1024.67 1024.12 1023.40 1022.53 1021.59 1020.67 1019.87 1019.34 1019.15 1019.38 1020.02 1021.02 1022.31 1023.74 1025.18 1026.49 1027.57 1028.35 1028.81 1028.98 1028.92 1028.71 1028.43 1028.14 1027.91 1027.75 1027.66 1027.62 1027.62 1027.61 1027.60 1027.56 1027.51 1027.46 1027.42 1027.39 1027.37 1027.36 1027.32 1027.24 1027.09 1026.86 1026.54
1025.18 1024.69 1024.06 1023.28 1022.37 1021.42 1020.51 1019.78 1019.36 1019.32 1019.72 1020.55 1021.76 1023.22 1024.79 1026.33 1027.68 1028.74 1029.46 1029.83 1029.90 1029.73 1029.42 1029.08 1028.78 1028.56 1028.45 1028.43 1028.49 1028.56 1028.63 1028.65 1028.62 1028.55 1028.44 1028.33 1028.22 1028.13 1028.05 1027.97 1027.87 1027.73 1027.52 1027.23
1025.20 1024.63 1023.93 1023.09 1022.15 1021.19 1020.33 1019.68 1019.37 1019.48 1020.05 1021.04 1022.40 1023.98 1025.65 1027.22 1028.57 1029.59 1030.23 1030.50 1030.46 1030.21 1029.84 1029.47 1029.17 1029.00 1028.96 1029.04 1029.19 1029.36 1029.50 1029.57 1029.56 1029.47 1029.32 1029.15 1028.97 1028.81 1028.67 1028.55 1028.43 1028.28 1028.09 1027.83
1025.25 1024.60 1023.82 1022.94 1021.98 1021.04 1020.23 1019.67 1019.46 1019.69 1020.38 1021.49 1022.94 1024.58 1026.27 1027.83 1029.14 1030.09 1030.65 1030.85 1030.74 1030.44 1030.05 1029.68 1029.43 1029.32 1029.37 1029.55 1029.79 1030.05 1030.26 1030.37 1030.38 1030.29 1030.11 1029.89 1029.65 1029.43 1029.24 1029.07 1028.92 1028.76 1028.56 1028.32
1025.42 1024.71 1023.88 1022.97 1022.01 1021.09 1020.33 1019.83 1019.71 1020.02 1020.77 1021.93 1023.39 1025.03 1026.69 1028.19 1029.43 1030.31 1030.81 1030.95 1030.82 1030.51 1030.14 1029.83 1029.64 1029.62 1029.75 1030.01 1030.34 1030.67 1030.93 1031.08 1031.11 1031.02 1030.82 1030.57 1030.29 1030.01 1029.77 1029.56 1029.36 1029.17 1028.95 1028.69
1025.79 1025.05 1024.21 1023.28 1022.33 1021.44 1020.72 1020.27 1020.18 1020.51 1021.27 1022.40 1023.81 1025.37 1026.93 1028.34 1029.48 1030.29 1030.75 1030.88 1030.76 1030.51 1030.21 1029.98 1029.89 1029.95 1030.16 1030.49 1030.88 1031.24 1031.53 1031.70 1031.74 1031.64 1031.44 1031.17 1030.86 1030.55 1030.27 1030.01 1029.76 1029.52 1029.26 1028.97
1026.38 1025.65 1024.82 1023.91 1022.99 1022.13 1021.43 1020.99 1020.90 1021.20 1021.89 1022.92 1024.21 1025.63 1027.04 1028.32 1029.37 1030.11 1030.55 1030.70 1030.66 1030.49 1030.31 1030.19 1030.20 1030.35 1030.64 1031.01 1031.41 1031.79 1032.07 1032.24 1032.26 1032.16 1031.96 1031.68 1031.36 1031.03 1030.72 1030.42 1030.13 1029.83 1029.51 1029.16
1027.14 1026.46 1025.67 1024.80 1023.92 1023.09 1022.41 1021.96 1021.83 1022.05 1022.62 1023.50 1024.61 1025.84 1027.08 1028.21 1029.14 1029.83 1030.27 1030.49 1030.54 1030.50 1030.46 1030.48 1030.60 1030.84 1031.17 1031.55 1031.95 1032.30 1032.55 1032.68 1032.69 1032.57 1032.37 1032.09 1031.78 1031.45 1031.12 1030.79 1030.46 1030.11 1029.73 1029.31
1027.97 1027.36 1026.63 1025.83 1025.00 1024.20 1023.53 1023.07 1022.88 1022.99 1023.41 1024.10 1024.99 1026.01 1027.05 1028.02 1028.85 1029.50 1029.97 1030.26 1030.44 1030.56 1030.67 1030.84 1031.07 1031.37 1031.74 1032.12 1032.47 1032.77 1032.96 1033.05 1033.02 1032.89 1032.68 1032.41 1032.12 1031.80 1031.47 1031.12 1030.76 1030.36 1029.92 1029.44
1028.73 1028.19 1027.54 1026.80 1026.03 1025.27 1024.62 1024.13 1023.88 1023.88 1024.14 1024.64 1025.33 1026.13 1026.98 1027.81 1028.54 1029.17 1029.67 1030.06 1030.37 1030.65 1030.92 1031.23 1031.57 1031.93 1032.31 1032.67 1032.97 1033.20 1033.33 1033.35 1033.28 1033.13 1032.92 1032.67 1032.40 1032.10 1031.78 1031.43 1031.04 1030.60 1030.12 1029.58
1029.29 1028.81 1028.22 1027.54 1026.81 1026.10 1025.47 1024.98 1024.67 1024.58 1024.71 1025.05 1025.55 1026.18 1026.86 1027.56 1028.22 1028.83 1029.38 1029.87 1030.32 1030.75 1031.18 1031.61 1032.04 1032.47 1032.86 1033.19 1033.44 1033.60 1033.66 1033.63 1033.52 1033.35 1033.14 1032.91 1032.65 1032.37 1032.06 1031.71 1031.31 1030.84 1030.32 1029.74
1029.55 1029.10 1028.54 1027.90 1027.22 1026.55 1025.94 1025.46 1025.13 1024.99 1025.03 1025.25 1025.62 1026.11 1026.67 1027.28 1027.90 1028.51 1029.11 1029.69 1030.26 1030.83 1031.39 1031.94 1032.46 1032.93 1033.33 1033.65 1033.86 1033.97 1033.98 1033.90 1033.77 1033.59 1033.38 1033.16 1032.92 1032.65 1032.35 1031.99 1031.57 1031.08 1030.52 1029.90
1029.53 1029.05 1028.48 1027.85 1027.19 1026.56 1025.99 1025.53 1025.22 1025.06 1025.06 1025.22 1025.52 1025.92 1026.41 1026.97 1027.57 1028.19 1028.84 1029.51 1030.18 1030.86 1031.54 1032.18 1032.77 1033.29 1033.71 1034.03 1034.22 1034.31 1034.29 1034.20 1034.05 1033.86 1033.66 1033.45 1033.21 1032.95 1032.64 1032.27 1031.82 1031.30 1030.70 1030.05
1029.29 1028.74 1028.12 1027.46 1026.81 1026.20 1025.67 1025.26 1024.98 1024.85 1024.86 1025.01 1025.28 1025.65 1026.11 1026.65 1027.24 1027.89 1028.58 1029.31 1030.07 1030.83 1031.59 1032.31 1032.96 1033.53 1033.98 1034.31 1034.51 1034.60 1034.59 1034.50 1034.36 1034.19 1033.99 1033.78 1033.55 1033.27 1032.94 1032.53 1032.05 1031.48 1030.85 1030.16
1028.93 1028.28 1027.58 1026.88 1026.22 1025.63 1025.14 1024.77 1024.55 1024.46 1024.51 1024.69 1024.97 1025.35 1025.81 1026.35 1026.95 1027.62 1028.35 1029.12 1029.92 1030.75 1031.56 1032.33 1033.03 1033.64 1034.12 1034.49 1034.72 1034.84 1034.86 1034.80 1034.69 1034.54 1034.36 1034.14 1033.90 1033.59 1033.22 1032.77 1032.24 1031.63 1030.94 1030.21
1028.59 1027.82 1027.04 1026.29 1025.61 1025.03 1024.58 1024.26 1024.10 1024.07 1024.17 1024.38 1024.70 1025.10 1025.57 1026.12 1026.74 1027.42 1028.16 1028.95 1029.78 1030.62 1031.46 1032.26 1032.99 1033.63 1034.16 1034.56 1034.84 1035.01 1035.07 1035.06 1034.99 1034.87 1034.70 1034.49 1034.22 1033.89 1033.47 1032.97 1032.38 1031.71 1030.98 1030.20
1028.33 1027.47 1026.63 1025.84 1025.15 1024.59 1024.17 1023.91 1023.79 1023.82 1023.97 1024.22 1024.56 1024.98 1025.46 1026.01 1026.63 1027.30 1028.04 1028.83 1029.66 1030.50 1031.34 1032.15 1032.89 1033.54 1034.10 1034.53 1034.86 1035.08 1035.20 1035.24 1035.21 1035.12 1034.97 1034.76 1034.48 1034.11 1033.65 1033.10 1032.46 1031.74 1030.95 1030.13
1028.19 1027.27 1026.40 1025.62 1024.95 1024.42 1024.05 1023.83 1023.76 1023.82 1024.00 1024.26 1024.61 1025.03 1025.51 1026.05 1026.65 1027.31 1028.02 1028.78 1029.59 1030.41 1031.23 1032.02 1032.75 1033.40 1033.97 1034.43 1034.79 1035.05 1035.21 1035.30 1035.31 1035.25 1035.12 1034.91 1034.61 1034.23 1033.74 1033.15 1032.47 1031.71 1030.89 1030.04
1028.09 1027.18 1026.34 1025.60 1024.99 1024.53 1024.22 1024.05 1024.02 1024.10 1024.28 1024.54 1024.87 1025.26 1025.71 1026.22 1026.78 1027.41 1028.09 1028.82 1029.58 1030.37 1031.15 1031.90 1032.61 1033.24 1033.80 1034.26 1034.63 1034.91 1035.11 1035.22 1035.26 1035.22 1035.11 1034.91 1034.61 1034.21 1033.71 1033.11 1032.41 1031.64 1030.81 1029.94
Thickness
5508 5517 5518 5524 5530 5538 5541 5541 5540 5538 5539 5543 5547 5550 5553 5558 5563 5567 5570 5573 5576 5579 5581 5583 5587 5590 5594 5597 5600 5603 5605 5607 5610 5612 5613 5613 5612 5611 5610 5610 5609 5609 5609 5609
5502 5499 5501 5508 5516 5523 5528 5529 5526 5524 5526 5531 5534 5538 5542 5544 5548 5553 5557 5561 5564 5567 5569 5572 5575 5579 5582 5585 5588 5591 5594 5596 5599 5600 5602 5603 5603 5602 5601 5600 5600 5600 5599 5599
5488 5484 5490 5499 5505 5510 5513 5518 5517 5516 5516 5520 5528 5533 5534 5533 5536 5541 5545 5548 5551 5553 5556 5559 5562 5565 5569 5572 5574 5578 5581 5584 5586 5588 5590 5592 5593 5592 5592 5592 5591 5590 5589 5589
5473 5475 5483 5490 5492 5500 5502 5502 5505 5507 5515 5515 5520 5527 5528 5525 5527 5530 5533 5536 5538 5540 5542 5545 5548 5551 5555 5557 5560 5564 5568 5571 5573 5575 5577 5579 5580 5581 5581 5580 5580 5580 5579 5579
5462 5463 5473 5477 5478 5485 5489 5491 5495 5500 5504 5504 5508 5515 5520 5515 5518 5519 5521 5522 5524 5526 5528 5530 5533 5535 5539 5542 5546 5550 5554 5557 5559 5562 5564 5565 5566 5567 5568 5568 5569 5568 5568 5568
5454 5455 5458 5462 5469 5474 5478 5483 5487 5490 5494 5492 5494 5503 5508 5508 5509 5508 5508 5508 5510 5512 5514 5516 5519 5521 5525 5528 5531 5536 5539 5542 5545 5548 5550 5552 5553 5553 5554 5555 5556 5556 5555 5555
5451 5452 5451 5455 5465 5469 5474 5479 5480 5480 5482 5488 5484 5488 5495 5494 5494 5495 5495 5495 5497 5498 5500 5503 5506 5508 5511 5514 5517 5521 5525 5528 5530 5533 5536 5538 5539 5540 5541 5542 5542 5542 5542 5542
5446 5448 5443 5446 5451 5458 5461 5468 5473 5477 5480 5481 5472 5480 5484 5478 5479 5480 5481 5481 5483 5485 5486 5487 5490 5493 5495 5498 5501 5505 5509 5513 5515 5518 5521 5522 5524 5525 5526 5527 5527 5527 5528 5528
5438 5438 5436 5438 5442 5449 5454 5456 5456 5460 5451 5458 5469 5469 5471 5468 5469 5469 5469 5471 5471 5472 5472 5474 5476 5478 5481 5484 5487 5490 5494 5497 5500 5503 5506 5507 5509 5510 5511 5512 5512 5513 5513 5513
5422 5425 5430 5433 5440 5441 5444 5446 5449 5454 5459 5466 5466 5468 5475 5465 5462 5461 5460 5460 5459 5460 5461 5462 5464 5465 5468 5470 5473 5477 5480 5483 5485 5488 5491 5492 5493 5495 5496 5497 5496 5497 5497 5497
5417 5420 5425 5429 5430 5433 5435 5436 5439 5445 5449 5460 5463 5470 5464 5458 5454 5451 5451 5449 5449 5450 5450 5451 5452 5454 5456 5458 5461 5464 5467 5469 5471 5473 5475 5477 5478 5480 5481 5481 5481 5482 5482 5482
5414 5418 5420 5420 5419 5420 5426 5429 5434 5443 5437 5443 5453 5459 5447 5447 5445 5442 5441 5440 5439 5439 5439 5440 5441 5442 5444 5447 5449 5451 5453 5455 5457 5458 5460 5462 5464 5465 5467 5467 5467 5467 5467 5467
5411 5411 5422 5426 5423 5418 5419 5420 5421 5424 5430 5436 5444 5453 5440 5438 5437 5435 5433 5432 5430 5429 5429 5430 5431 5432 5433 5435 5437 5438 5440 5442 5443 5445 5447 5449 5450 5451 5452 5452 5453 5453 5453 5453
5407 5401 5410 5426 5423 5414 5413 5415 5417 5420 5428 5431 5437 5445 5440 5434 5432 5430 5427 5425 5423 5421 5420 5421 5421 5421 5422 5423 5425 5427 5429 5430 5431 5433 5434 5435 5436 5437 5437 5438 5438 5438 5438 5439
5403 5399 5389 5393 5395 5399 5403 5409 5412 5413 5421 5427 5435 5433 5435 5430 5427 5424 5421 5418 5415 5413 5412 5412 5411 5412 5413 5413 5415 5417 5418 5419 5419 5421 5422 5422 5422 5422 5423 5423 5423 5423 5423 5424
5393 5391 5385 5385 5390 5393 5397 5406 5409 5409 5412 5417 5419 5423 5427 5423 5419 5416 5413 5410 5409 5408 5406 5404 5403 5403 5404 5404 5405 5406 5407 5408 5408 5409 5409 5409 5409 5409 5409 5409 5409 5409 5408 5407
5388 5381 5387 5398 5379 5391 5407 5413 5411 5411 5412 5414 5420 5426 5419 5415 5413 5412 5409 5405 5404 5402 5400 5398 5397 5396 5395 5395 5395 5396 5396 5397 5397 5397 5397 5397 5397 5397 5396 5396 5396 5395 5393 5392
5379 5373 5373 5384 5384 5408 5428 5410 5409 5410 5413 5411 5414 5416 5413 5411 5408 5405 5402 5400 5398 5396 5395 5392 5390 5389 5388 5386 5385 5385 5385 5386 5386 5386 5386 5385 5384 5384 5384 5383 5382 5381 5380 5378
5382 5377 5373 5377 5392 5406 5416 5410 5405 5406 5415 5412 5410 5409 5408 5402 5400 5402 5397 5394 5392 5390 5387 5384 5381 5379 5378 5376 5376 5376 5376 5375 5375 5374 5374 5373 5372 5372 5371 5370 5369 5368 5366 5365
5375 5374 5374 5370 5393 5409 5430 5409 5402 5404 5414 5415 5407 5406 5403 5398 5405 5410 5396 5389 5384 5381 5377 5374 5372 5370 5369 5367 5366 5366 5365 5365 5364 5362 5361 5360 5359 5359 5358 5357 5356 5354 5352 5350
5369 5369 5370 5373 5385 5403 5413 5400 5399 5406 5422 5412 5405 5404 5399 5397 5402 5398 5388 5382 5378 5373 5369 5366 5364 5362 5360 5357 5356 5355 5354 5353 5351 5349 5348 5348 5346 5345 5345 5344 5342 5340 5338 5337
5383 5379 5369 5368 5379 5406 5405 5398 5405 5417 5410 5404 5401 5398 5394 5392 5387 5383 5379 5375 5371 5366 5363 5359 5356 5354 5351 5348 5346 5345 5343 5340 5338 5336 5336 5335 5334 5332 5332 5330 5328 5326 5324 5323
5385 5395 5394 5392 5413 5414 5403 5406 5406 5401 5400 5398 5395 5391 5387 5383 5380 5377 5373 5368 5364 5360 5356 5351 5347 5344 5341 5337 5335 5334 5331 5328 5325 5324 5323 5322 5321 5319 5317 5316 5314 5312 5310 5309
5386 5381 5383 5383 5401 5404 5400 5398 5396 5393 5393 5391 5388 5384 5380 5378 5375 5370 5366 5361 5357 5352 5347 5342 5338 5335 5332 5328 5325 5322 5319 5315 5313 5312 5311 5310 5308 5307 5305 5302 5300 5297 5296 5294
5396 5380 5379 5383 5398 5396 5400 5399 5397 5393 5387 5383 5380 5377 5374 5372 5369 5365 5359 5354 5349 5344 5338 5334 5330 5327 5323 5319 5315 5311 5307 5304 5302 5301 5299 5298 5296 5294 5291 5289 5285 5283 5280 5276
5394 5392 5394 5410 5411 5405 5409 5402 5395 5389 5385 5381 5376 5370 5366 5363 5361 5356 5351 5346 5341 5336 5330 5325 5321 5318 5314 5309 5305 5301 5296 5293 5291 5290 5288 5286 5283 5280 5278 5276 5275 5271 5267 5264